This demonstration page uses our WeatherBlox Daily Observations layout. Learn more.

Hourly Observations for June 2, 2015

Temp ( °F °C ) Dew Point ( °F °C ) Humidity (%) Winds ( mph kmh ) Pressure ( in mb ) Visibility ( mi km ) Precip ( " mm )
12:15 am 00:15 Clear 63 17 57 14 83 83 SSE 12 19 29.97 1015 10 16.09344 0 0
12:35 am 00:35 Clear 63 17 57 14 83 83 SSE 14 22 29.94 1014 10 16.09344 0 0
12:55 am 00:55 Clear 63 17 57 14 83 83 SSE 14 22 29.94 1014 10 16.09344 0 0
1:15 am 01:15 Clear 63 17 57 14 83 83 SSE 12 19 29.94 1014 10 16.09344 0 0
1:35 am 01:35 Clear 63 17 57 14 83 83 SSE 13 20 29.94 1014 10 16.09344 0 0
1:55 am 01:55 Clear 63 17 57 14 83 83 S 9 15 29.94 1014 10 16.09344 0 0
2:15 am 02:15 Partly Cloudy 63 17 57 14 83 83 S 8 13 29.94 1014 10 16.09344 0 0
2:35 am 02:35 Mostly Cloudy 63 17 57 14 83 83 WNW 8 13 29.97 1015 10 16.09344 0 0
2:55 am 02:55 Cloudy 63 17 59 15 88 88 W 6 9 29.97 1015 10 16.09344 0 0
3:15 am 03:15 Cloudy 63 17 59 15 88 88 W 3 6 29.97 1015 10 16.09344 0 0
3:35 am 03:35 Cloudy 64 18 59 15 83 83 WSW 9 15 29.97 1015 10 16.09344 0 0
3:55 am 03:55 Cloudy with Thunderstorms 63 17 59 15 88 88 SW 7 11 29.97 1015 10 16.09344 0.01 0.254
4:15 am 04:15 Cloudy with Thunderstorms 63 17 59 15 88 88 S 14 22 29.94 1014 10 16.09344 0.01 0.254
4:35 am 04:35 Cloudy with Light Rain 63 17 59 15 88 88 S 12 19 29.94 1014 10 16.09344 0.04 1.016
4:55 am 04:55 Mostly Cloudy with Light Rain 63 17 59 15 88 88 S 7 11 29.91 1013 10 16.09344 0.06 1.524
5:15 am 05:15 Mostly Cloudy with Light Rain 61 16 59 15 94 94 SE 13 20 29.85 1011 10 16.09344 0 0
5:35 am 05:35 Partly Cloudy 61 16 59 15 94 94 SE 8 13 29.88 1012 10 16.09344 0.01 0.254
5:55 am 05:55 Partly Cloudy 61 16 59 15 94 94 S 15 24 29.91 1013 10 16.09344 0.01 0.254
6:15 am 06:15 Mostly Cloudy with Light Rain 61 16 59 15 94 94 S 16 26 29.88 1012 10 16.09344 0 0
6:35 am 06:35 Cloudy with Light Rain 61 16 59 15 94 94 S 18 30 29.85 1011 10 16.09344 0 0
6:55 am 06:55 Mostly Cloudy with Light Drizzle 61 16 59 15 94 94 SSE 22 35 29.83 1010 10 16.09344 0.01 0.254
7:15 am 07:15 Partly Cloudy 61 16 59 15 94 94 SSE 20 31 29.83 1010 10 16.09344 0 0
7:35 am 07:35 Sunny 61 16 59 15 94 94 S 18 30 29.85 1011 10 16.09344 0 0
7:55 am 07:55 Mostly Cloudy 61 16 59 15 94 94 S 17 28 29.85 1011 10 16.09344 0 0
8:15 am 08:15 Cloudy 61 16 59 15 94 94 S 16 26 29.85 1011 10 16.09344 0 0
8:35 am 08:35 Cloudy 63 17 59 15 88 88 S 17 28 29.85 1011 10 16.09344 0 0
8:55 am 08:55 Cloudy 63 17 59 15 88 88 S 14 22 29.85 1011 10 16.09344 0 0
9:15 am 09:15 Cloudy 63 17 61 16 94 94 SSE 17 28 29.85 1011 10 16.09344 0 0
9:35 am 09:35 Cloudy 63 17 61 16 94 94 S 17 28 29.85 1011 10 16.09344 0 0
9:55 am 09:55 Cloudy 63 17 61 16 94 94 S 13 20 29.85 1011 10 16.09344 0 0
10:15 am 10:15 Cloudy 64 18 61 16 88 88 S 13 20 29.88 1012 10 16.09344 0 0
10:35 am 10:35 Cloudy 64 18 61 16 88 88 SSE 14 22 29.85 1011 10 16.09344 0 0
10:55 am 10:55 Cloudy 64 18 61 16 88 88 S 14 22 29.85 1011 10 16.09344 0 0
11:15 am 11:15 Cloudy 64 18 61 16 88 88 SSE 13 20 29.85 1011 10 16.09344 0 0
11:35 am 11:35 Cloudy 66 19 61 16 83 83 SSE 13 20 29.83 1010 10 16.09344 0 0
11:55 am 11:55 Cloudy 66 19 63 17 88 88 SSE 12 19 29.83 1010 10 16.09344 0 0
12:15 pm 12:15 Cloudy 68 20 63 17 83 83 SSE 12 19 29.83 1010 10 16.09344 0 0
12:35 pm 12:35 Cloudy 70 21 63 17 78 78 SSE 12 19 29.83 1010 10 16.09344 0 0
12:55 pm 12:55 Cloudy 72 22 64 18 78 78 SE 12 19 29.83 1010 10 16.09344 0 0
1:15 pm 13:15 Cloudy 72 22 64 18 78 78 SSE 9 15 29.83 1010 10 16.09344 0 0
1:35 pm 13:35 Cloudy 75 24 64 18 69 69 SSE 17 28 29.77 1008 10 16.09344 0 0
1:55 pm 13:55 Cloudy 73 23 64 18 74 74 SSE 14 22 29.77 1008 10 16.09344 0 0
2:15 pm 14:15 Mostly Cloudy 75 24 64 18 69 69 SSE 16 26 29.77 1008 10 16.09344 0 0
2:35 pm 14:35 Mostly Cloudy 77 25 64 18 65 65 SSE 15 24 29.77 1008 10 16.09344 0 0
2:55 pm 14:55 Partly Cloudy 77 25 63 17 61 61 S 14 22 29.77 1008 10 16.09344 0 0
3:15 pm 15:15 Partly Cloudy 79 26 64 18 61 61 SSE 17 28 29.71 1006 10 16.09344 0 0
3:35 pm 15:35 Partly Cloudy 79 26 64 18 61 61 S 16 26 29.71 1006 10 16.09344 0 0
3:55 pm 15:55 Partly Cloudy 81 27 64 18 58 58 SSE 13 20 29.71 1006 10 16.09344 0 0
4:15 pm 16:15 Partly Cloudy 81 27 64 18 58 58 SSE 20 31 29.68 1005 10 16.09344 0 0
4:35 pm 16:35 Sunny 81 27 64 18 58 58 S 16 26 29.68 1005 10 16.09344 0 0
4:55 pm 16:55 Sunny 82 28 64 18 55 55 S 16 26 29.68 1005 10 16.09344 0 0
5:15 pm 17:15 Sunny 82 28 64 18 55 55 SSE 15 24 29.68 1005 10 16.09344 0 0
5:35 pm 17:35 Partly Cloudy 82 28 63 17 51 51 SSE 18 30 29.68 1005 10 16.09344 0 0
5:55 pm 17:55 Sunny 82 28 63 17 51 51 SSE 20 31 29.68 1005 10 16.09344 0 0
6:15 pm 18:15 Sunny 82 28 61 16 48 48 S 18 30 29.65 1004 10 16.09344 0 0
6:35 pm 18:35 Sunny 82 28 61 16 48 48 SSE 13 20 29.65 1004 10 16.09344 0 0
6:55 pm 18:55 Sunny 82 28 61 16 48 48 S 17 28 29.65 1004 10 16.09344 0 0
7:15 pm 19:15 Sunny 82 28 61 16 48 48 SSE 17 28 29.65 1004 10 16.09344 0 0
7:35 pm 19:35 Sunny 82 28 63 17 51 51 SSE 16 26 29.65 1004 10 16.09344 0 0
7:55 pm 19:55 Sunny 81 27 63 17 54 54 SSE 15 24 29.65 1004 10 16.09344 0 0
8:15 pm 20:15 Sunny 81 27 63 17 54 54 SSE 13 20 29.65 1004 10 16.09344 0 0
8:35 pm 20:35 Sunny 79 26 64 18 61 61 SSE 12 19 29.65 1004 10 16.09344 0 0
8:55 pm 20:55 Sunny 77 25 64 18 65 65 SE 9 15 29.65 1004 10 16.09344 0 0
9:15 pm 21:15 Clear 75 24 64 18 69 69 SE 8 13 29.68 1005 10 16.09344 0 0
9:35 pm 21:35 Clear 75 24 64 18 69 69 SE 10 17 29.68 1005 10 16.09344 0 0
9:55 pm 21:55 Clear 73 23 64 18 74 74 SE 12 19 29.68 1005 10 16.09344 0 0
10:15 pm 22:15 Clear 73 23 64 18 74 74 SE 13 20 29.68 1005 10 16.09344 0 0
10:35 pm 22:35 Clear 73 23 64 18 74 74 SE 13 20 29.68 1005 10 16.09344 0 0
10:55 pm 22:55 Clear 72 22 64 18 78 78 SE 10 17 29.68 1005 10 16.09344 0 0
11:15 pm 23:15 Clear 72 22 64 18 78 78 SE 12 19 29.68 1005 10 16.09344 0 0
11:35 pm 23:35 Clear 72 22 64 18 78 78 SE 14 22 29.68 1005 10 16.09344 0 0
11:55 pm 23:55 Clear 72 22 64 18 78 78 SE 13 20 29.68 1005 10 16.09344 0 0

Powered by AerisWeather